This is the latest recevied weather packets stored in our database for station/object KP4FJC. If no packets are shown the sender has not sent any weather packets the latest 10 day(s).
| Time | Temp. | Humidity | Pressure | Rain* | Wind** | Luminosity | Snow |
|---|---|---|---|---|---|---|---|
| 1777913733 | 32.22° C | 54% | 1016.9 hPa | 0 mm | - | 993 W/m² | - |
| 1777913431 | 32.22° C | 54% | 1017.1 hPa | 0 mm | - | 968 W/m² | - |
| 1777913127 | 32.22° C | 55% | 1016.8 hPa | 0 mm | - | 778 W/m² | - |
| 1777912824 | 32.22° C | 54% | 1017 hPa | 0 mm | - | 747 W/m² | - |
| 1777912520 | 32.22° C | 54% | 1017.1 hPa | 0 mm | - | 212 W/m² | - |
| 1777912216 | 32.22° C | 54% | 1017.4 hPa | 0 mm | - | 673 W/m² | - |
| 1777911913 | 32.22° C | 54% | 1017.3 hPa | 0 mm | - | 170 W/m² | - |
| 1777911609 | 31.67° C | 56% | 1017.6 hPa | 0 mm | - | 165 W/m² | - |
| 1777911304 | 32.22° C | 55% | 1017.5 hPa | 0 mm | - | 506 W/m² | - |
| 1777911003 | 32.22° C | 56% | 1017.5 hPa | 0 mm | - | 1057 W/m² | - |
| 1777910701 | 31.11° C | 57% | 1017.4 hPa | 0 mm | - | 1050 W/m² | - |
| 1777910396 | 32.22° C | 55% | 1017.8 hPa | 0 mm | - | 542 W/m² | - |
| 1777910093 | 32.22° C | 54% | 1017.9 hPa | 0 mm | - | 969 W/m² | - |
| 1777909790 | 32.22° C | 53% | 1017.9 hPa | 0 mm | - | 953 W/m² | - |
| 1777909486 | 31.67° C | 54% | 1017.8 hPa | 0 mm | - | 944 W/m² | - |
| 1777909179 | 31.11° C | 56% | 1017.9 hPa | 0 mm | - | 739 W/m² | - |
| 1777908877 | 31.67° C | 55% | 1017.9 hPa | 0 mm | - | 928 W/m² | - |
| 1777908574 | 31.11° C | 56% | 1018 hPa | 0 mm | - | 920 W/m² | - |
| 1777908271 | 31.11° C | 57% | 1018.1 hPa | 0 mm | - | 927 W/m² | - |
| 1777907967 | 31.11° C | 58% | 1018.2 hPa | 0 mm | - | 916 W/m² | - |
| 1777907662 | 31.11° C | 60% | 1018 hPa | 0 mm | - | 906 W/m² | - |
| 1777907358 | 31.11° C | 62% | 1017.8 hPa | 0 mm | - | 148 W/m² | - |
| 1777907055 | 31.11° C | 61% | 1018 hPa | 0 mm | - | 581 W/m² | - |
| 1777906753 | 31.11° C | 62% | 1018.4 hPa | 0 mm | - | 290 W/m² | - |
| 1777906449 | 31.11° C | 61% | 1018 hPa | 0 mm | - | 958 W/m² | - |
* Rain latest hour (hover to see other rain measurements)
** Current wind speed in m/s (hover to see current wind gust speed)